Weather History for Rome, GA

Change the Weather History Date:

Sunday, January 26, 2014

  Actual Average Record
Temperature  
Mean Temperature 38 °F 41 °F  
Max Temperature 57 °F 53 °F 71 °F (2005)
Min Temperature 19 °F 30 °F 18 °F (2001)
Degree Days  
Heating Degree Days 27 24  
Month to date heating degree days 782 624  
Since 1 July heating degree days 2047 1924  
Moisture  
Dew Point 24 °F    
Average Humidity 63    
Maximum Humidity 91    
Minimum Humidity 35    
Precipitation  
Precipitation 0.00 in 0.18 in 0.51 in (2012)
Month to date precipitation 3.08 3.86  
Year to date precipitation 3.08 3.86  
Snow  
Snow 0.00 in - - ()
Month to date snowfall T  
Since 1 July snowfall T  
Snow Depth 0.00 in    
Sea Level Pressure  
Sea Level Pressure 29.94 in    
Wind  
Wind Speed 2 mph (SSW)    
Max Wind Speed 14 mph    
Max Gust Speed 18 mph    
Visibility 10 miles    
Events      
T = Trace of Precipitation, MM = Missing Value Source: NWS Daily Summary

Daily Weather History Graph

Daily Weather History Graph

Search for Another Location

Airport:

Trip Planner

Search our weather history database for the weather conditions in past years. The results will help you decide how hot, cold, wet, or windy it might be!

Date:

Astronomy

Jan. 26, 2014 Rise Set
Actual Time 7:42 AM EST 6:04 PM EST
Civil Twilight 7:15 AM EST 6:31 PM EST
Nautical Twilight 6:45 AM EST 7:01 PM EST
Astronomical Twilight 6:15 AM EST 7:31 PM EST
Moon 3:17 AM EST (1/26) 1:54 PM EST (1/26)
Length of Visible Light 11h 15m
Length of Day
10h 22m
Waning Crescent, 24% of the Moon is Illuminated
Jan 26
Waning Crescent
Jan 30
New
Feb 6
First Quarter
Feb 14
Full
Feb 22
Last Quarter

Hourly Weather History & Observations

Time (EST) Temp. Windchill Dew Point Humidity Pressure Visibility Wind Dir Wind Speed Gust Speed Precip Events Conditions
12:53 AM 21.9 °F - 17.1 °F 82% 29.99 in 10.0 mi Calm Calm - N/A   Clear
1:53 AM 23.0 °F - 17.1 °F 78% 29.97 in 10.0 mi Calm Calm - N/A   Clear
2:53 AM 21.9 °F - 17.1 °F 82% 29.98 in 10.0 mi Calm Calm - N/A   Clear
3:53 AM 21.9 °F - 18.0 °F 85% 29.98 in 10.0 mi Calm Calm - N/A   Clear
4:53 AM 19.9 °F - 17.1 °F 89% 29.97 in 7.0 mi Calm Calm - N/A   Clear
5:53 AM 19.9 °F - 17.1 °F 89% 29.97 in 10.0 mi Calm Calm - N/A   Clear
6:53 AM 21.0 °F - 17.1 °F 85% 29.98 in 10.0 mi Calm Calm - N/A   Clear
7:53 AM 19.0 °F - 17.1 °F 92% 30.00 in 10.0 mi Calm Calm - N/A   Clear
8:53 AM 25.0 °F - 19.9 °F 81% 30.01 in 9.0 mi Calm Calm - N/A   Clear
9:53 AM 32.0 °F 28.7 °F 24.1 °F 73% 30.01 in 10.0 mi South 3.5 mph - N/A   Clear
10:53 AM 39.9 °F 35.1 °F 25.0 °F 55% 30.01 in 10.0 mi South 6.9 mph - N/A   Clear
11:53 AM 46.0 °F 43.1 °F 26.1 °F 46% 29.98 in 10.0 mi Variable 5.8 mph - N/A   Unknown
12:53 PM 51.1 °F - 27.0 °F 39% 29.94 in 10.0 mi Variable 6.9 mph - N/A   Clear
1:53 PM 54.0 °F - 28.0 °F 37% 29.91 in 10.0 mi Variable 5.8 mph - N/A   Clear
2:53 PM 55.0 °F - 28.0 °F 35% 29.89 in 10.0 mi SW 9.2 mph 19.6 mph N/A   Clear
3:53 PM 55.9 °F - 28.0 °F 34% 29.87 in 10.0 mi SW 11.5 mph 18.4 mph N/A   Unknown
4:53 PM 55.9 °F - 28.9 °F 36% 29.87 in 10.0 mi SW 3.5 mph - N/A   Clear
5:53 PM 52.0 °F - 28.9 °F 41% 29.87 in 10.0 mi Calm Calm - N/A   Clear
6:53 PM 45.0 °F - 28.9 °F 53% 29.88 in 10.0 mi Calm Calm - N/A   Clear
7:53 PM 42.1 °F - 28.9 °F 60% 29.88 in 10.0 mi Calm Calm - N/A   Clear
8:53 PM 41.0 °F - 28.9 °F 62% 29.89 in 10.0 mi Calm Calm - N/A   Clear
9:53 PM 39.9 °F - 30.0 °F 68% 29.90 in 10.0 mi Calm Calm - N/A   Clear
10:53 PM 39.9 °F - 30.0 °F 68% 29.89 in 10.0 mi Calm Calm - N/A   Clear
11:53 PM 39.9 °F - 30.0 °F 68% 29.88 in 10.0 mi Calm Calm - N/A   Overcast